| time (UTC) | temp F | wind direction | speed knots | gust knots | rain 1hr in | rain 24hr in | rain mn in | humidity % | barometer mb |
| 20260831233837 | 99 | 272 | 0.9 | 0.9 | 0.00 | 0.00 | 0.00 | 36 | 1013.7 |
| 20260831230835 | 99 | 58 | 0.9 | 0.9 | 0.00 | 0.00 | 0.00 | 35 | 1013.6 |
| 20260831223833 | 100 | 75 | 2.6 | 2.6 | 0.00 | 0.00 | 0.00 | 35 | 1013.8 |
| 20260831220829 | 100 | 339 | 0.0 | 0.9 | 0.00 | 0.00 | 0.00 | 37 | 1014.4 |
| 20260831213827 | 97 | 202 | 0.9 | 1.7 | 0.00 | 0.00 | 0.00 | 39 | 1014.5 |
| 20260831210826 | 98 | 275 | 0.0 | 0.0 | 0.00 | 0.00 | 0.00 | 38 | 1015.0 |
| 20260831203823 | 101 | 209 | 1.7 | 1.7 | 0.00 | 0.00 | 0.00 | 35 | 1015.1 |
| 20260831200818 | 102 | 69 | 2.6 | 5.2 | 0.00 | 0.00 | 0.00 | 37 | 1015.5 |
| 20260831193817 | 100 | 197 | 0.9 | 0.9 | 0.00 | 0.00 | 0.00 | 40 | 1015.8 |
| 20260831190814 | 99 | 148 | 7.0 | 11.3 | 0.00 | 0.00 | 0.00 | 39 | 1016.3 |
| 20260831183810 | 100 | 262 | 1.7 | 2.6 | 0.00 | 0.00 | 0.00 | 40 | 1016.6 |
| 20260831180806 | 99 | 56 | 1.7 | 1.7 | 0.00 | 0.00 | 0.00 | 40 | 1016.9 |
| 20260831173804 | 98 | 202 | 1.7 | 2.6 | 0.00 | 0.00 | 0.00 | 44 | 1017.5 |
| 20260831170800 | 96 | 271 | 0.0 | 0.9 | 0.00 | 0.00 | 0.00 | 49 | 1017.8 |
| 20260831163759 | 94 | 281 | 0.0 | 0.0 | 0.00 | 0.00 | 0.00 | 52 | 1018.0 |
| 20260831160755 | 93 | 183 | 4.3 | 5.2 | 0.00 | 0.00 | 0.00 | 53 | 1017.9 |
| 20260831153753 | 90 | 212 | 1.7 | 1.7 | 0.00 | 0.00 | 0.00 | 58 | 1017.9 |
| 20260831150753 | 89 | 266 | 0.9 | 0.9 | 0.00 | 0.00 | 0.00 | 64 | 1018.0 |
| 20260831143753 | 85 | 221 | 0.9 | 0.9 | 0.00 | 0.00 | 0.00 | 69 | 1017.8 |
| 20260831140752 | 84 | 153 | 1.7 | 1.7 | 0.00 | 0.00 | 0.00 | 72 | 1017.6 |
| 20260831133748 | 83 | 202 | 1.7 | 1.7 | 0.00 | 0.00 | 0.00 | 73 | 1017.4 |
| 20260831130747 | 82 | 200 | 0.9 | 0.9 | 0.00 | 0.00 | 0.00 | 74 | 1017.1 |
| 20260831123746 | 80 | 221 | 0.0 | 0.0 | 0.00 | 0.00 | 0.00 | 76 | 1016.4 |
| 20260831120744 | 79 | 248 | 0.0 | 0.0 | 0.00 | 0.00 | 0.00 | 79 | 1016.4 |
| 20260831113742 | 80 | 157 | 0.0 | 0.9 | 0.00 | 0.00 | 0.00 | 77 | 1015.9 |
| 20260831110742 | 80 | 149 | 1.7 | 2.6 | 0.00 | 0.00 | 0.00 | 75 | 1015.7 |
| 20260831103740 | 81 | 229 | 0.0 | 0.0 | 0.00 | 0.00 | 0.00 | 73 | 1015.9 |
| 20260831100741 | 81 | 216 | 0.0 | 0.0 | 0.00 | 0.00 | 0.00 | 72 | 1015.5 |
| 20260831093740 | 82 | 189 | 0.9 | 0.9 | 0.00 | 0.00 | 0.00 | 70 | 1015.7 |
| 20260831090740 | 83 | 207 | 0.0 | 0.0 | 0.00 | 0.00 | 0.00 | 67 | 1015.1 |
| 20260831083738 | 84 | 150 | 0.9 | 1.7 | 0.00 | 0.00 | 0.00 | 65 | 1015.2 |
| 20260831080737 | 84 | 213 | 0.9 | 1.7 | 0.00 | 0.00 | 0.00 | 62 | 1015.0 |
| 20260831073736 | 85 | 208 | 0.9 | 0.9 | 0.00 | 0.00 | 0.00 | 61 | 1015.0 |
| 20260831070732 | 82 | 233 | 0.0 | 0.0 | 0.00 | 0.00 | 0.00 | 65 | 1014.8 |
| 20260831063727 | 84 | 240 | 0.0 | 0.0 | 0.00 | 0.00 | 0.00 | 62 | 1014.9 |
| 20260831060724 | 85 | 226 | 0.0 | 0.0 | 0.00 | 0.00 | 0.00 | 61 | 1014.9 |
| 20260831053725 | 84 | 251 | 0.0 | 0.0 | 0.00 | 0.00 | 0.00 | 61 | 1014.9 |
| 20260831050720 | 85 | 260 | 0.0 | 0.0 | 0.00 | 0.00 | 0.00 | 59 | 1014.9 |
| 20260831043718 | 87 | 265 | 0.0 | 0.0 | 0.00 | 0.00 | 0.00 | 55 | 1014.8 |
| 20260831040715 | 89 | 236 | 0.0 | 0.0 | 0.00 | 0.00 | 0.00 | 53 | 1014.7 |
| 20260831033714 | 89 | 219 | 0.0 | 0.0 | 0.00 | 0.00 | 0.00 | 52 | 1014.5 |
| 20260831030709 | 89 | 260 | 0.0 | 0.0 | 0.00 | 0.00 | 0.00 | 52 | 1014.2 |
| 20260831023707 | 90 | 214 | 0.0 | 0.0 | 0.00 | 0.00 | 0.00 | 50 | 1013.9 |
| 20260831020705 | 91 | 250 | 0.0 | 0.0 | 0.00 | 0.00 | 0.00 | 49 | 1013.7 |
| 20260831013704 | 92 | 157 | 0.9 | 0.9 | 0.00 | 0.00 | 0.00 | 46 | 1013.2 |
| 20260831010702 | 94 | 213 | 0.9 | 1.7 | 0.00 | 0.00 | 0.00 | 44 | 1012.9 |
| 20260831003702 | 95 | 167 | 1.7 | 1.7 | 0.00 | 0.00 | 0.00 | 43 | 1013.0 |
| 20260831000703 | 97 | 233 | 0.9 | 0.9 | 0.00 | 0.00 | 0.00 | 43 | 1013.1 |